Location: Oberstdorf
(47.4188°N, 10.2969°E)
Time: 06:16:25
(UTC+01:00)

ISS - Pass Details

Date: 27 October 2019
Orbit: 412 x 421 km, 51.6° (Epoch: 13 November)

Event Time Altitude Azimuth Distance (km) Brightness Sun altitude
Exits shadow 04:56:44 18° 177° (S) 1,125 -1.6 -20.4°
Maximum altitude 04:58:12 23° 140° (SE) 938 -1.6 -20.2°
Drops below altitude 10° 05:00:57 10° 85° (E) 1,506 0.3 -19.7°
Sets 05:03:19 0° 71° (ENE) 2,373 1.4 -19.3°
